Location: Bangkok
(13.7500°N, 100.5170°E)
Time: 02:37:15
(UTC+07:00)

HST - Visible Passes

Search period start: 23 August 2014 00:00
Search period end: 02 September 2014 00:00
Orbit: 547 x 551 km, 28.5° (Epoch: 22 August)

Date Brightness Start Highest point End Pass type
(mag) Time Alt. Az. Time Alt. Az. Time Alt. Az.
23 Aug 3.5 04:04:28 13° N 04:04:28 13° N 04:05:42 10° NNE visible
24 Aug 3.7 03:57:57 11° N 03:57:57 11° N 03:58:31 10° NNE visible
24 Aug 3.5 05:38:08 10° NNW 05:39:22 11° N 05:40:35 10° NNE visible
25 Aug 3.4 05:30:57 10° NNW 05:32:41 12° N 05:34:25 10° NNE visible
26 Aug 3.4 05:23:46 10° NNW 05:26:00 14° NNE 05:28:14 10° NE visible
27 Aug 3.3 05:16:34 10° NNW 05:19:17 17° NNE 05:21:59 10° NE visible
28 Aug 3.1 05:09:24 10° NNW 05:12:32 20° NNE 05:15:40 10° ENE visible
29 Aug 2.7 05:02:16 10° NW 05:05:45 25° NNE 05:09:14 10° ENE visible
30 Aug 2.3 04:55:39 13° NW 04:58:56 32° NNE 05:02:43 10° E visible
30 Aug 3.3 20:18:27 10° SW 20:19:01 13° SSW 20:19:01 13° SSW visible
31 Aug 1.8 04:49:39 21° NW 04:52:06 44° NNE 04:56:06 10° E visible
31 Aug 2.4 20:11:15 10° SW 20:13:16 26° SSW 20:13:16 26° SSW visible
01 Sep 1.1 04:43:45 37° NW 04:45:13 62° NNE 04:49:22 10° ESE visible
01 Sep 1.3 20:04:11 10° WSW 20:07:29 52° SW 20:07:29 52° SW visible
